• Em Portugal
  • Lista de países
  • Para 7 dias
  • Temperatura da água
  • Mapas de satélite
  • Mapa do tempo
  • Widgets de tempo
  • user-avatar
    Iniciar Sessão

    Previsão horária em Smecino

    Hoje, 21 Agosto, Terça-feira

    Tempo Temperatura Precipitação Vento Pressão Humidade
    00:00 +15°C° 0 mm 4 m/s 750 mmHg 81%
    01:00 +15°C° 0 mm 4 m/s 750 mmHg 81%
    02:00 +14°C° 0 mm 3 m/s 750 mmHg 83%
    03:00 +14°C° 0 mm 3 m/s 751 mmHg 85%
    04:00 +13°C° 0 mm 3 m/s 751 mmHg 87%
    05:00 +14°C° 0 mm 3 m/s 751 mmHg 82%
    06:00 +16°C° 0 mm 3 m/s 752 mmHg 76%
    07:00 +17°C° 0 mm 4 m/s 752 mmHg 71%
    08:00 +18°C° 0 mm 4 m/s 753 mmHg 66%
    09:00 +19°C° 0 mm 4 m/s 753 mmHg 61%
    10:00 +20°C° 0 mm 4 m/s 753 mmHg 56%
    11:00 +21°C° 0 mm 4 m/s 753 mmHg 54%
    12:00 +21°C° 0 mm 4 m/s 754 mmHg 52%
    13:00 +22°C° 0 mm 3 m/s 754 mmHg 50%
    14:00 +21°C° 0 mm 3 m/s 754 mmHg 50%
    15:00 +21°C° 0 mm 3 m/s 754 mmHg 51%
    16:00 +21°C° 0 mm 3 m/s 754 mmHg 51%
    17:00 +20°C° 0 mm 3 m/s 754 mmHg 57%
    18:00 +18°C° 0 mm 2 m/s 754 mmHg 64%
    19:00 +18°C° 0 mm 1 m/s 754 mmHg 70%
    20:00 +16°C° 0 mm 1 m/s 754 mmHg 72%
    21:00 +15°C° 0 mm 1 m/s 754 mmHg 75%
    22:00 +14°C° 0 mm 1 m/s 755 mmHg 78%
    23:00 +14°C° 0 mm 1 m/s 755 mmHg 78%

    Amanhã, 22 Agosto, Quarta-feira

    Tempo Temperatura Precipitação Vento Pressão Humidade
    00:00 +13°C° 0 mm 2 m/s 755 mmHg 79%
    01:00 +13°C° 0 mm 2 m/s 755 mmHg 79%
    02:00 +13°C° 0 mm 2 m/s 755 mmHg 81%
    03:00 +13°C° 0 mm 2 m/s 755 mmHg 83%
    04:00 +12°C° 0 mm 2 m/s 755 mmHg 85%
    05:00 +13°C° 0 mm 2 m/s 755 mmHg 81%
    06:00 +15°C° 0 mm 2 m/s 755 mmHg 77%
    07:00 +16°C° 0 mm 3 m/s 755 mmHg 73%
    08:00 +18°C° 0 mm 3 m/s 755 mmHg 66%
    09:00 +20°C° 0 mm 3 m/s 755 mmHg 58%
    10:00 +22°C° 0 mm 3 m/s 755 mmHg 51%
    11:00 +24°C° 0 mm 2 m/s 755 mmHg 48%
    12:00 +25°C° 0 mm 2 m/s 754 mmHg 44%
    13:00 +26°C° 0 mm 2 m/s 754 mmHg 41%
    14:00 +26°C° 0 mm 2 m/s 753 mmHg 40%
    15:00 +26°C° 0 mm 2 m/s 753 mmHg 40%
    16:00 +26°C° 0 mm 2 m/s 752 mmHg 40%
    17:00 +25°C° 0 mm 2 m/s 752 mmHg 46%
    18:00 +23°C° 0 mm 2 m/s 752 mmHg 52%
    19:00 +20°C° 0 mm 2 m/s 752 mmHg 58%
    20:00 +19°C° 0 mm 2 m/s 752 mmHg 60%
    21:00 +19°C° 0 mm 2 m/s 751 mmHg 62%
    22:00 +18°C° 0 mm 3 m/s 751 mmHg 64%
    23:00 +18°C° 0 mm 3 m/s 751 mmHg 64%

    Depois de amanhã, 23 Agosto, Quinta-feira

    Tempo Temperatura Precipitação Vento Pressão Humidade
    00:00 +18°C° 0 mm 3 m/s 751 mmHg 65%
    01:00 +18°C° 0 mm 4 m/s 750 mmHg 65%
    02:00 +17°C° 0 mm 4 m/s 750 mmHg 66%
    03:00 +17°C° 0 mm 4 m/s 750 mmHg 66%
    04:00 +17°C° 0 mm 4 m/s 749 mmHg 67%
    05:00 +18°C° 0 mm 4 m/s 749 mmHg 66%
    06:00 +18°C° 0 mm 4 m/s 749 mmHg 65%
    07:00 +19°C° 0 mm 4 m/s 749 mmHg 64%
    08:00 +20°C° 0 mm 3 m/s 749 mmHg 63%
    09:00 +21°C° 0 mm 3 m/s 749 mmHg 61%
    10:00 +22°C° 0 mm 3 m/s 749 mmHg 60%
    11:00 +25°C° 0 mm 3 m/s 749 mmHg 57%
    12:00 +26°C° 0 mm 3 m/s 748 mmHg 54%
    13:00 +27°C° 0 mm 3 m/s 748 mmHg 51%
    14:00 +27°C° 0 mm 3 m/s 748 mmHg 51%
    15:00 +28°C° 0 mm 2 m/s 747 mmHg 51%
    16:00 +28°C° 0 mm 2 m/s 747 mmHg 52%
    17:00 +26°C° 0 mm 2 m/s 747 mmHg 56%
    18:00 +25°C° 0 mm 1 m/s 747 mmHg 60%
    19:00 +24°C° 0 mm 1 m/s 746 mmHg 64%
    20:00 +24°C° 0 mm 1 m/s 746 mmHg 64%
    21:00 +23°C° 0 mm 2 m/s 746 mmHg 65%
    22:00 +23°C° 0 mm 2 m/s 746 mmHg 65%
    23:00 +23°C° 0 mm 2 m/s 745 mmHg 66%

    24 Agosto, Sexta-feira

    Tempo Temperatura Precipitação Vento Pressão Humidade
    00:00 +21°C° 0 mm 2 m/s 745 mmHg 67%
    01:00 +21°C° 0 mm 3 m/s 745 mmHg 68%
    02:00 +20°C° 0,2 mm 3 m/s 744 mmHg 73%
    03:00 +20°C° 0,2 mm 3 m/s 744 mmHg 78%
    04:00 +19°C° 0,2 mm 3 m/s 744 mmHg 82%
    05:00 +19°C° 0,2 mm 3 m/s 744 mmHg 82%
    06:00 +20°C° 0,2 mm 3 m/s 744 mmHg 82%
    07:00 +20°C° 0,2 mm 3 m/s 744 mmHg 82%
    08:00 +21°C° 0,1 mm 3 m/s 744 mmHg 79%
    09:00 +22°C° 0,1 mm 4 m/s 744 mmHg 76%
    10:00 +23°C° 0,1 mm 4 m/s 744 mmHg 73%
    11:00 +22°C° 0,4 mm 4 m/s 744 mmHg 72%
    12:00 +22°C° 0,4 mm 4 m/s 744 mmHg 71%
    13:00 +21°C° 0,4 mm 4 m/s 744 mmHg 70%
    14:00 +21°C° 0,1 mm 4 m/s 744 mmHg 66%
    15:00 +22°C° 0,1 mm 4 m/s 744 mmHg 62%
    16:00 +22°C° 0,1 mm 5 m/s 744 mmHg 57%
    17:00 +20°C° 0,1 mm 5 m/s 744 mmHg 63%
    18:00 +19°C° 0,1 mm 4 m/s 745 mmHg 69%
    19:00 +17°C° 0,1 mm 4 m/s 745 mmHg 75%
    20:00 +15°C° 0 mm 4 m/s 745 mmHg 73%
    21:00 +15°C° 0 mm 4 m/s 745 mmHg 71%
    22:00 +14°C° 0 mm 4 m/s 746 mmHg 69%
    23:00 +14°C° 0 mm 4 m/s 746 mmHg 67%

    25 Agosto, Sábado

    Tempo Temperatura Precipitação Vento Pressão Humidade
    00:00 +13°C° 0 mm 4 m/s 746 mmHg 66%
    01:00 +13°C° 0 mm 4 m/s 746 mmHg 64%
    02:00 +12°C° 0 mm 4 m/s 746 mmHg 66%
    03:00 +12°C° 0 mm 4 m/s 746 mmHg 68%
    04:00 +11°C° 0 mm 3 m/s 746 mmHg 70%
    05:00 +12°C° 0,1 mm 4 m/s 746 mmHg 69%
    06:00 +12°C° 0,1 mm 4 m/s 747 mmHg 69%
    07:00 +13°C° 0,1 mm 5 m/s 747 mmHg 68%
    08:00 +14°C° 0 mm 5 m/s 747 mmHg 62%
    09:00 +15°C° 0 mm 5 m/s 747 mmHg 56%
    10:00 +17°C° 0 mm 5 m/s 747 mmHg 49%
    11:00 +17°C° 0 mm 5 m/s 747 mmHg 46%
    12:00 +19°C° 0 mm 5 m/s 747 mmHg 43%
    13:00 +20°C° 0 mm 5 m/s 747 mmHg 40%
    14:00 +19°C° 0 mm 4 m/s 747 mmHg 41%
    15:00 +19°C° 0 mm 4 m/s 746 mmHg 42%
    16:00 +19°C° 0 mm 3 m/s 746 mmHg 43%
    17:00 +18°C° 0 mm 3 m/s 746 mmHg 46%
    18:00 +17°C° 0 mm 2 m/s 746 mmHg 49%
    19:00 +15°C° 0 mm 2 m/s 746 mmHg 52%
    20:00 +15°C° 0 mm 2 m/s 746 mmHg 52%
    21:00 +15°C° 0 mm 2 m/s 746 mmHg 51%
    22:00 +15°C° 0 mm 2 m/s 746 mmHg 51%
    23:00 +14°C° 0 mm 2 m/s 746 mmHg 52%

    26 Agosto, Domingo

    Tempo Temperatura Precipitação Vento Pressão Humidade
    00:00 +14°C° 0 mm 2 m/s 746 mmHg 53%
    01:00 +14°C° 0 mm 2 m/s 746 mmHg 54%
    02:00 +13°C° 0 mm 2 m/s 746 mmHg 55%
    03:00 +13°C° 0 mm 2 m/s 745 mmHg 57%
    04:00 +13°C° 0 mm 2 m/s 745 mmHg 58%
    05:00 +13°C° 0 mm 2 m/s 745 mmHg 59%
    06:00 +14°C° 0 mm 2 m/s 745 mmHg 59%
    07:00 +15°C° 0 mm 2 m/s 745 mmHg 60%
    08:00 +16°C° 0 mm 2 m/s 745 mmHg 58%
    09:00 +17°C° 0 mm 2 m/s 745 mmHg 56%
    10:00 +17°C° 0 mm 2 m/s 745 mmHg 55%
    11:00 +18°C° 0 mm 2 m/s 745 mmHg 55%
    12:00 +18°C° 0 mm 2 m/s 745 mmHg 55%
    13:00 +18°C° 0 mm 2 m/s 745 mmHg 55%
    14:00 +18°C° 0,1 mm 2 m/s 745 mmHg 57%
    15:00 +18°C° 0,1 mm 3 m/s 745 mmHg 58%
    16:00 +17°C° 0,1 mm 3 m/s 745 mmHg 59%
    17:00 +16°C° 0 mm 3 m/s 745 mmHg 65%
    18:00 +14°C° 0 mm 3 m/s 745 mmHg 70%
    19:00 +15°C° 0 mm 2 m/s 746 mmHg 75%
    20:00 +14°C° 0 mm 2 m/s 746 mmHg 79%
    21:00 +13°C° 0 mm 2 m/s 746 mmHg 83%
    22:00 +12°C° 0 mm 2 m/s 746 mmHg 87%
    23:00 +12°C° 0 mm 2 m/s 746 mmHg 88%
    Mostrar mais